Regional Weather Roundup
Issued by NWS

Home | Current Version | Previous Version | Graphics & Text | Print | Product List | Glossary Off
Versions: 1 2 3 4 5 6 7 8 9 10 11 12 13 14 15 16 17 18 19 20 21 22 23 24 25 26 27

000
ASUS45 KBOU 211807
RWRCO

WEATHER ROUNDUP FOR COLORADO
NATIONAL WEATHER SERVICE DENVER/BOULDER CO
1200 PM MDT SAT OCT 21 2017

NOTE: "FAIR" INDICATES FEW OR NO CLOUDS BELOW 12000 FEET WITH NO
SIGNIFICANT WEATHER AND/OR OBSTRUCTIONS TO VISIBILITY.

COZ001>005-013-030-031-211900-
...NORTHWEST COLORADO...

CITY           SKY/WX    TMP DP  RH WIND       PRES   REMARKS
CRAIG          FAIR      32  24  72 CALM      30.17F
HAYDEN         FAIR      33  22  63 VRB3      30.18S
MEEKER         FAIR      37  31  78 S3        30.18S
RABBIT EARS PA CLOUDY    18  16  93 W3        30.12R FOG
STEAMBOAT SPGS FAIR      33  25  72 SW5       30.16S WCI  29
WALDEN         NOT AVBL
$$

COZ006>008-011-211900-
...WEST CENTRAL VALLEYS...

CITY           SKY/WX    TMP DP  RH WIND       PRES   REMARKS
GRAND JUNCTION FAIR      49  20  31 CALM      30.18S
MONTROSE       FAIR      46  13  26 CALM      30.20R
EAGLE          FAIR      39  15  37 W6        30.18S
RIFLE          FAIR      44  20  38 SW3       30.18F
DELTA          FAIR      52  15  23 CALM      30.17S
NUCLA          FAIR      46   3  17 NW8       30.21R
$$

COZ017>023-064>068-211900-
...SOUTHWEST COLORADO...

CITY           SKY/WX    TMP DP  RH WIND       PRES   REMARKS
DURANGO        FAIR      51   6  16 W26G33    30.07R
CORTEZ         FAIR      51   1  13 N17G25    30.14S
PAGOSA SPRINGS FAIR      50   4  15 SW16G25   30.08R
TELLURIDE      FAIR      34  15  45 SW8       30.19R WCI  27
WOLF CREEK PAS FAIR      30  14  51 S20G25    30.20R WCI  18
$$

COZ009-010-012-014-032>034-037-058>063-211900-
...CENTRAL COLORADO...

CITY           SKY/WX    TMP DP  RH WIND       PRES   REMARKS
ASPEN          PTSUNNY   34  24  67 N7        30.17R WCI  28
BUENA VISTA    FAIR      43   8  24 W23G30    30.09R
COPPER MTN     CLOUDY    19  14  79 MISG      30.10S
BERTHOUD PASS  CLOUDY     9   0  66 NW35G48   30.04R WCI -15
COTTONWOOD PAS FAIR      36   9  32 SW12G24   30.09S
GUNNISON       FAIR      40   9  28 W17G25    30.15R
KREMMLING      FAIR      37  21  52 W8        30.17S
LEADVILLE      FAIR      25   9  50 W15G28    30.12R WCI  13
MONARCH PASS     N/A     18  14  86 MISG      30.18R
SALIDA         FAIR      47  13  26 SW21G28   30.14S
SUNLIGHT       FAIR      19  18  93 MISG      30.21S
WILKERSON PASS FAIR      27   5  39 W6        30.13R WCI  20
$$

COZ069>075-211900-
...SAN LUIS VALLEY/SANGRE DE CRISTO MOUNTAINS...

CITY           SKY/WX    TMP DP  RH WIND       PRES   REMARKS
ALAMOSA        FAIR      50  17  27 E21       30.05R
DEL NORTE      FAIR      48  12  23 E8        30.05R
LA VETA PASS   FAIR      43  21  42 S12G18    30.20R
SAGUACHE       FAIR      43  18  36 NW22G32   30.11R
$$

COZ035-036-038>040-211900-
...NORTHERN COLORADO FRONT RANGE...

CITY           SKY/WX    TMP DP  RH WIND       PRES   REMARKS
DENVER INTL AP FAIR      51   9  18 W25G33    30.03R
DMNS CITY PARK   N/A     49  10  20 NW29G35   30.05R
AURORA         MOSUNNY   50  10  20 W23G30    30.05R
FRONT RANGE AP MOSUNNY   54  10  17 W22G28    30.05R
ERIE MUNI ARPT FAIR      51  11  19 W23G33    30.11R
BOULDER MUN AP FAIR      50  12  22 W18G30    30.06R
CENTENNIAL     FAIR      48   3  15 NW24G36   30.04R
BROOMFIELD     MOSUNNY   48  14  25 W25G31    30.07R
FORT COLLINS   FAIR      51  13  21 NW24G31   30.05R
LONGMONT       FAIR      51  12  21 NW6G12    30.06R
$$

COZ041-046-047-076>085-087-088-211900-
...PIKES PEAK/PALMER DIVIDE AND SOUTHERN FOOTHILLS...

CITY           SKY/WX    TMP DP  RH WIND       PRES   REMARKS
COLO. SPRINGS  FAIR      53  14  21 N20G30    30.01R
A. F. ACADEMY  FAIR      50   9  18 W13G23    30.03R
SCHRIEVER AFB  FAIR      50  10  20 N16G23    30.01R
CHEYENNE MTN   FAIR      47  13  26 N12G20    29.96R
ELLICOTT         N/A    N/A N/A N/A N24G32    30.00R
FALCON         FAIR      48   8  20 NW12G28   30.05R
FORT CARSON    FAIR      54  15  20 N20G28    29.99R
LIMON          FAIR      52  12  20 NW25G38   30.00R
MONUMENT HILL  FAIR      43  12  28 N20G28    30.07R
CANON CITY     SUNNY     57  16  19 NW10G23   29.99R
WALSENBURG     NOT AVBL
TRINIDAD       PTSUNNY   52  30  43 NE12G21   30.01S
$$

COZ042>045-048>051-090-091-211900-
...NORTHEAST COLORADO...

CITY           SKY/WX    TMP DP  RH WIND       PRES   REMARKS
GREELEY ARPT   FAIR      52  15  23 W28G38    30.01R
AKRON          FAIR      54  18  24 NW24G38   29.99R
BURLINGTON     FAIR      56  23  27 NW22G37   29.96R
WRAY           FAIR      57  25  28 NW25G35   29.94S
YUMA           NOT AVBL
STERLING       FAIR      55  19  24 NW25G39   29.97R
HOLYOKE        FAIR      59  25  27 NW22G33   29.94R
FORT MORGAN    FAIR      55  13  19 NW26G33   30.01R
$$

COZ086-089-092>099-211900-
...SOUTHEAST COLORADO...

CITY           SKY/WX    TMP DP  RH WIND       PRES   REMARKS
PUEBLO         CLOUDY    60  18  19 E8        29.97S
LA JUNTA       FAIR      62  20  19 N14G20    29.99R
LAMAR          FAIR      61  19  19 N20G26    29.95R
SPRINGFIELD      N/A     56  27  32 N23G30    29.96R
$$




USA.gov is the U.S. government's official web portal to all federal, state and local government web resources and services.